Location: Fort Wayne
(41.1310°N, 85.1290°W)
Time: 06:43:20
(UTC-04:00)

Daily predictions for brighter satellites

Satellite Brightness Start Highest point End
(mag) Time Altitude Azimuth Time Altitude Azimuth Time Altitude Azimuth
CZ-2D R/B 4.1 21:30:25 10° S 21:34:14 52° W 21:38:04 10° NNW
CZ-2C R/B 0.4 21:34:17 10° SSE 21:36:31 62° ENE 21:38:47 10° N
SPOT 5 3.8 21:33:21 10° SE 21:36:59 27° ENE 21:40:38 10° N
Aureole 2 Rocket 4.0 21:33:42 10° SW 21:37:21 43° WNW 21:40:41 10° N
H-2A R/B 2.2 21:37:45 10° SSE 21:41:58 60° ENE 21:46:19 10° N
Lacrosse 4 Rocket 2.6 21:39:00 10° SSE 21:42:04 21° ESE 21:45:10 10° ENE
YAOGAN 11 4.3 21:38:13 10° S 21:42:33 75° WSW 21:46:52 10° NNW
USA 234 4.5 21:37:05 10° E 21:42:52 34° NNE 21:48:40 10° NW
Cosmos 1464 Rocket 4.2 21:37:00 10° N 21:43:09 77° W 21:49:19 10° S
ERS-1 Rocket 3.0 21:39:19 10° SSE 21:44:19 79° ENE 21:49:21 10° N
deb Chang Zheng 4 3.6 21:39:58 10° NNE 21:44:20 62° ESE 21:48:38 10° S
Cosmos 2228 3.4 21:41:16 10° NNW 21:45:41 70° W 21:50:02 10° S
GEOS 3 Rocket 3.7 21:43:21 10° SE 21:48:37 89° WSW 21:53:52 10° NW
Cosmos 1626 Rocket 3.6 21:44:52 10° S 21:49:17 84° E 21:53:43 10° N
PSLV R/B 4.4 21:47:40 10° SE 21:50:21 27° ENE 21:53:04 10° NNE
CZ-4 DEB 4.4 21:47:44 10° SSW 21:50:43 34° W 21:53:42 10° NNW
Cosmos 1603 3.9 21:46:28 10° SSW 21:52:05 78° WNW 21:57:43 10° NNE
FENGYUN 3A 4.4 21:46:59 10° S 21:52:13 53° W 21:57:30 10° NNW
Atlas Centaur 2 3.5 21:49:46 10° WSW 21:56:01 36° S 22:03:17 10° ESE
Cosmos 1238 4.4 21:56:18 10° S 21:59:16 48° E 22:02:13 10° NNE
Envisat 3.2 21:54:41 10° SSE 21:59:39 58° ENE 22:04:39 10° N
Cosmos 407 Rocket 4.2 21:57:39 10° SSE 22:02:18 32° E 22:06:54 10° NE
Cosmos 2034 Rocket 4.4 21:58:08 10° NNW 22:04:28 71° W 22:10:43 10° S
Cosmos 1943 Rocket 3.7 22:00:12 10° N 22:04:33 23° NE 22:08:52 10° ESE
Nimbus 7 Rocket 4.4 22:00:22 10° NNE 22:06:20 71° ESE 22:12:11 10° S
Cosmos 1953 Rocket 4.4 22:06:21 12° SSE 22:09:54 32° E 22:13:51 10° NNE
Cosmos 1943 3.2 22:06:48 10° S 22:12:23 65° ESE 22:18:02 10° NNE
Cosmos 1939 Rocket 3.2 22:14:05 10° S 22:18:13 70° WSW 22:22:21 10° NNW
Cosmos 1953 4.4 22:17:15 10° NE 22:19:04 13° ENE 22:20:32 11° E
Cosmos 1346 Rocket 2.9 22:27:06 16° S 22:30:05 54° E 22:33:57 10° NNE
Cosmos 1992 Rocket 4.2 22:28:19 10° NNW 22:33:31 69° WSW 22:37:49 15° S
Cosmos 1842 4.4 22:35:17 23° ESE 22:36:25 26° E 22:39:43 10° NNE
SeaSat 1 2.4 22:35:39 20° SSE 22:39:03 83° ENE 22:44:01 10° NNW
ARGOS 3.5 22:36:49 21° SE 22:40:21 54° ENE 22:45:38 10° N
SL-23 DEB 4.4 22:35:44 10° SW 22:42:36 63° SE 22:46:36 10° ENE
COSMOS 2455 4.0 22:37:08 10° SW 22:42:52 46° NW 22:48:40 10° NNE
USA 81 4.1 22:37:53 10° N 22:43:13 87° W 22:47:29 16° S
Cosmos 1758 Rocket 3.6 22:40:29 20° S 22:43:27 61° E 22:47:45 10° NNE
Meteor 1-21 4.4 22:39:58 17° SSE 22:44:23 55° E 22:50:03 10° NNE
MetOp-B 4.3 22:45:19 17° S 22:49:29 75° WSW 22:54:52 10° NNW
ISS -0.7 22:47:22 10° WNW 22:50:04 23° NNW 22:52:47 10° NE
CZ-4B R/B 3.6 22:49:20 10° NNE 22:54:28 85° WNW 22:59:42 10° SSW
Cosmos 2369 Rocket 2.5 22:49:55 10° NNW 22:55:29 60° WSW 22:59:14 21° S
Cosmos 1825 Rocket 4.4 22:55:11 10° SSW 22:59:30 50° W 23:03:50 10° N
Landsat 7 4.2 22:58:24 29° SE 23:00:27 49° ENE 23:05:03 10° N
Cosmos 1766 3.2 22:57:29 10° N 23:01:31 77° E 23:03:02 37° SSE
CZ-4 R/B 3.9 23:00:39 10° NNE 23:05:41 87° ESE 23:09:21 19° SSW
H-2A R/B 2.5 23:04:51 29° ESE 23:06:52 44° ENE 23:11:42 10° N
DELTA 2 DEB (DPAF) 4.2 23:05:25 35° SSE 23:07:14 69° ENE 23:11:43 10° N
Cosmos 1758 4.0 23:03:25 10° N 23:07:21 42° ENE 23:08:15 36° ESE
PSLV R/B 3.2 23:03:54 10° W 23:07:27 81° S 23:08:18 49° ESE
YAOGAN 6 3.3 23:06:29 26° SSW 23:08:15 50° W 23:11:55 10° NNW
NOAA 11 4.1 23:05:44 28° SSE 23:08:43 87° ENE 23:14:10 10° NNW
ATLAS 3B R/B 3.3 23:01:29 10° SW 23:09:09 68° NW 23:16:40 10° NNE
Cosmos 1140 Rocket 3.7 23:07:18 31° SSE 23:09:25 49° ESE 23:14:28 10° NNE
IGS 5A 4.2 23:12:42 33° ESE 23:13:39 38° ENE 23:17:32 10° N
Cosmos 1842 Rocket 4.4 23:10:31 10° N 23:14:31 33° ENE 23:15:21 31° E
SPOT 5 4.4 23:11:38 11° SSW 23:15:02 26° W 23:18:40 10° NW
SPOT 1/Viking Rocket 3.9 23:12:56 23° S 23:16:00 58° WSW 23:21:06 10° NNW
Terra 2.2 23:14:42 35° ESE 23:16:16 49° ENE 23:20:52 10° N
Cosmos 676 Rocket 4.3 23:11:13 10° SSW 23:16:31 71° WNW 23:21:51 10° NNE
Lacrosse 4 Rocket 3.1 23:16:56 10° WSW 23:20:34 32° NW 23:24:18 10° N
NOSS 3-2 (A) 4.4 23:20:30 26° ESE 23:20:39 27° ESE 23:25:52 10° NE
Cosmos 2084 3.4 23:19:25 10° NNW 23:23:35 79° NE 23:24:37 51° SE
Cosmos 1544 4.4 23:20:40 10° NNE 23:23:55 28° ENE 23:23:55 28° ENE
SAR-Lupe-2 3.6 23:23:38 58° ESE 23:23:57 62° ENE 23:27:31 10° N
USA 234 3.2 23:21:49 30° SE 23:25:24 90° NE 23:32:01 10° NW
Cosmos 1470 4.2 23:24:43 10° NNE 23:27:56 24° ENE 23:27:56 24° ENE
Cosmos 1092 Rocket 4.4 23:27:08 34° SE 23:29:15 46° E 23:35:12 10° NNE
Cosmos 1805 3.2 23:25:37 10° N 23:29:33 66° E 23:29:59 60° ESE
Lacrosse 5 4.5 23:26:46 10° NNW 23:29:41 15° NNE 23:32:36 10° NE
BREEZE-M DEB (TANK) 4.5 23:27:46 10° WNW 23:29:43 20° NNW 23:31:22 10° NE
Cosmos 614 Rocket 4.2 23:30:46 43° SE 23:31:44 48° ESE 23:36:44 10° NNE
COSMOS 2406 3.1 23:33:42 28° SSW 23:36:53 81° ESE 23:42:38 10° NNE
Nadezhda 4 Rocket 4.0 23:34:52 35° S 23:37:41 73° E 23:44:00 10° N
CZ-4C R/B 4.0 23:38:41 39° SW 23:39:45 49° W 23:43:40 10° NNW
DMSP B5D2-2 4.0 23:38:23 10° NNE 23:43:41 78° ESE 23:45:23 44° S
Atlas Centaur 2 3.6 23:38:21 10° WSW 23:45:03 33° S 23:46:02 32° S
SL-27 R/B 3.7 23:45:17 30° WSW 23:46:14 36° WNW 23:49:22 10° N
Cosmos 2221 3.9 23:44:01 10° NNE 23:47:36 25° ENE 23:47:39 25° ENE
SL-8 R/B 3.8 23:43:20 10° WNW 23:48:11 70° NNE 23:49:39 43° E
Cosmos 1943 Rocket 2.5 23:43:13 10° NNW 23:48:38 56° WSW 23:50:26 39° SSW
Cosmos-2242 3.8 23:46:11 10° NNW 23:50:26 47° W 23:51:34 37° SW
COSMOS 2487 3.3 23:54:07 43° NE 23:54:07 43° NE 23:56:45 10° NNE
Cosmos 1953 3.0 23:51:58 10° NNW 23:55:47 45° W 23:56:18 42° WSW
